Flag for Spain Past Weather in Santa Cruz de Tenerife, Canary Islands, Spain — Yesterday and Last 2 Weeks

Now
68 °F

Passing clouds.


Feels Like: 68 °F
Forecast: 71 / 79 °F
Wind: 18 mph from Northwest

Location: Tenerife / Los Rodeos

Current Time: Jul 29, 2016 at 7:02:19 PM

Latest Report: Jul 29, 2016 at 6:00 PM


Visibility: N/A

Pressure: 30.09 "Hg

Humidity: 73%

Dew Point: 59 °F

Location of Santa Cruz de TenerifeLocation

Past Weather in Santa Cruz de Tenerife — Graph

°F

Santa Cruz de Tenerife Temperature Yesterday

Maximum temperature yesterday: 72 °F (at 2:30 PM)
Minimum temperature yesterday: 61 °F (at 1:30 AM)
Average temperature yesterday: 64 °F

High & Low Weather Summary for the Past Weeks

 TemperatureHumidityPressure
High93 °F (Jul 21, 12:00 PM)100% (Jul 17, 11:00 PM)30.21 "Hg (Jul 17, 11:00 PM)
Low61 °F (Jul 17, 5:00 AM)8% (Jul 15, 3:30 AM)30.01 "Hg (Jul 19, 5:00 AM)
Average72 °F59%30.09 "Hg
* Reported Jul 14 6:00 PM — Jul 29 6:00 PM, Santa Cruz de Tenerife, Weather by CustomWeather, © 2016

Note: Actual official high and low records may vary slightly from our data, if they occured in-between our weather recording intervals... More about our weather records

Advertising

Santa Cruz de Tenerife Weather History for the Previous 24 Hours

Scroll right to see more
 ConditionsComfort  
Time TempWeatherWind HumidityBarometerVisibility
6:00 PM
Fri, Jul 29
68 °FPassing clouds.18 mph73%30.09 "HgN/A
5:30 PM70 °FPassing clouds.20 mph73%30.09 "HgN/A
5:00 PM70 °FPassing clouds.20 mph73%30.09 "HgN/A
4:30 PM70 °FScattered clouds.18 mph73%30.09 "HgN/A
4:00 PM72 °FScattered clouds.15 mph69%30.09 "HgN/A
3:30 PM70 °FScattered clouds.16 mph73%30.09 "HgN/A
3:00 PM70 °FScattered clouds.16 mph73%30.12 "HgN/A
2:30 PM72 °FScattered clouds.16 mph69%30.12 "HgN/A
2:00 PM70 °FScattered clouds.18 mph73%30.12 "HgN/A
1:30 PM70 °FScattered clouds.17 mph73%30.12 "HgN/A
1:00 PM70 °FScattered clouds.20 mph73%30.12 "HgN/A
12:30 PM68 °FScattered clouds.21 mph78%30.12 "HgN/A
12:00 PM68 °FScattered clouds.18 mph78%30.12 "HgN/A
11:30 AM68 °FScattered clouds.17 mph78%30.12 "HgN/A
11:00 AM68 °FBroken clouds.22 mph78%30.12 "HgN/A
10:30 AM66 °FBroken clouds.21 mph83%30.12 "HgN/A
10:00 AM64 °FDrizzle. Broken clouds.16 mph94%30.12 "Hg6 mi
9:30 AM64 °FMild.18 mph94%30.12 "Hg4 mi
9:00 AM63 °FMild.18 mph94%30.09 "Hg4 mi
8:30 AM63 °FMild.15 mph94%30.09 "Hg6 mi
8:00 AM63 °FPartly cloudy.17 mph94%30.09 "Hg6 mi
7:30 AM61 °FPartly cloudy.18 mph100%30.09 "Hg6 mi
7:00 AM61 °FPartly cloudy.16 mph100%30.09 "Hg5 mi
6:30 AM61 °FFog.20 mph100%30.09 "Hg6 mi
6:00 AM61 °FPartly cloudy.20 mph100%30.09 "Hg4 mi
5:30 AM61 °FLow clouds.18 mph100%30.09 "Hg5 mi
5:00 AM61 °FPassing clouds.20 mph100%30.09 "HgN/A
4:30 AM61 °FFog.20 mph100%30.09 "Hg2 mi
4:00 AM61 °FCool.22 mph100%30.09 "Hg2 mi
3:30 AM61 °FLow clouds.21 mph100%30.09 "Hg4 mi
3:00 AM61 °FPassing clouds.20 mph100%30.12 "HgN/A
2:30 AM63 °FLow clouds.18 mph94%30.12 "Hg4 mi
2:00 AM63 °FPassing clouds.18 mph94%30.12 "Hg5 mi
1:30 AM63 °FLow clouds.18 mph94%30.12 "Hg4 mi
1:00 AM63 °FLow clouds.18 mph94%30.15 "Hg6 mi
12:30 AM63 °FLight fog.20 mph94%30.15 "Hg6 mi
12:00 AM63 °FLow clouds.18 mph94%30.15 "HgN/A
11:30 PM
Thu, Jul 28
63 °FLow clouds.17 mph94%30.15 "Hg6 mi
11:00 PM63 °FPassing clouds.16 mph94%30.15 "Hg6 mi
10:30 PM63 °FPassing clouds.20 mph94%30.12 "Hg6 mi
10:00 PM63 °FFog.18 mph94%30.12 "Hg6 mi
9:30 PM63 °FFog.18 mph94%30.12 "Hg6 mi
9:00 PM63 °FPartly sunny.22 mph88%30.12 "Hg6 mi
8:30 PM63 °FPartly sunny.21 mph94%30.12 "Hg6 mi
8:00 PM64 °FPartly sunny.18 mph88%30.12 "Hg6 mi
7:30 PM64 °FPartly sunny.18 mph88%30.12 "Hg6 mi
7:00 PM64 °FPartly sunny.18 mph94%30.12 "Hg6 mi
Weather by CustomWeather, © 2016

See weather overviewHow to use our weather pages